User: anonymous   Login
Location: Castelbiague
(43.0361°N, 0.9246°E)
Time: 23:07:37
(UTC+00:00)
Language:

Cosmos 1464 Rocket - Orbit

View from above orbital plane
View from above orbital plane
View from above satellite
View from above satellite

Ground track
Ground track

The orbit data is extracted from the following two-line orbital elements,

1 14085U 83048B   21262.78475079  .00000043  00000-0  27816-4 0  9996
2 14085  82.9480  15.0979 0034775  76.2038 284.2985 13.76324721924632
Epoch (UTC): 19 September 2021 18:50:02
Eccentricity: 0.0034775
inclination: 82.9480°
perigee height: 951 km
apogee height: 1002 km
right ascension of ascending node: 15.0979°
argument of perigee: 76.2038°
revolutions per day: 13.76324721
mean anomaly at epoch: 284.2985°
orbit number at epoch: 92463

The dashed part of the orbit path shows where the satellite is in the earth's shadow,  

DLR